Regional Weather Roundup
Issued by NWS

Home | Current Version | Previous Version | Graphics & Text | Print | Product List | Glossary On
Versions: 1 2 3 4 5 6 7 8 9 10 11 12 13 14 15 16 17 18 19 20 21 22 23 24 25 26 27 28 29 30 31 32 33 34 35 36 37 38 39 40 41 42 43 44 45 46 47 48 49 50
000
ASUS45 KSLC 261810
RWRUT

UTAH REGIONAL WEATHER ROUNDUP
NATIONAL WEATHER SERVICE SALT LAKE CITY UT
1200 PM MDT TUE MAY 26 2015

UTZ001>011-023>025-261900-

NORTHERN UTAH

CITY           SKY/WX    TMP DP  RH WIND       PRES   REMARKS
BRIGHAM CITY   CLOUDY    58  48  68 E5        30.05S
HILL AFB       CLOUDY    54  50  89 E7        30.06S
LOGAN          CLOUDY    57  47  69 S9        30.04S
OGDEN          LGT RAIN  54  50  86 E3        30.06R
PROVO AIRPORT  NOT AVBL
SALT LAKE CITY LGT RAIN  57  52  83 S12       30.05R
VERNAL         PTSUNNY   61  45  55 SE7       30.06F
WENDOVER       MOSUNNY   64  50  59 SE9       30.02F
HEBER CITY     LGT RAIN  48  46  93 CALM      30.11S
WEST JORDAN    CLOUDY    55  54  94 SE13G21   30.07R

$$

UTZ012>022-026-027-261900-

SOUTHERN/CENTRAL UTAH

CITY           SKY/WX    TMP DP  RH WIND       PRES   REMARKS
BLANDING       MOSUNNY   62  46  55 S6        30.20F
BRYCE CANYON   PTSUNNY   57  40  52 W12       30.20S
CEDAR CITY     PTSUNNY   63  46  54 SW6       30.09F
DELTA          MOSUNNY   64  45  48 S13       30.06F
HANKSVILLE     CLOUDY    70  43  37 S5        30.07S
MILFORD        MOSUNNY   62  47  57 S16       30.07S
MOAB/CYNLANDS  SUNNY     69  44  40 SE7       30.02F
PRICE          CLOUDY    60  42  51 SE5       30.09F
ST GEORGE      CLOUDY    77  45  31 W7        30.00F
KANAB          MOSUNNY   68  43  40 S6        30.12F

$$

REGIONAL REPORTS     COLORADO/ARIZONA

CITY           SKY/WX    TMP DP  RH WIND       PRES   REMARKS
CRAIG, CO      MOSUNNY   61  44  53 VRB3      30.09F
GRAND JUNCTION PTSUNNY   67  44  43 SE8       30.04F
RIFLE          MOSUNNY   64  45  49 VRB3      30.08F
MONTROSE       PTSUNNY   68  38  33 CALM      30.10F
CORTEZ         CLOUDY    64  43  46 W5        30.14S
PAGE, AZ       MOSUNNY   72  43  35 E3        30.06S
GRAND CANYON   SUNNY     65  36  34 S10G17    30.18F
KINGMAN        SUNNY     81  28  14 SW21G31   30.01S
FLAGSTAFF      PTSUNNY   62  32  32 S13G20    30.21R

$$

REGIONAL REPORTS    NEVADA/IDAHO/WYOMING

CITY           SKY/WX    TMP DP  RH WIND       PRES   REMARKS
LAS VEGAS, NV  MOSUNNY   83  40  21 SE6       29.89F
ELY            PTSUNNY   61  39  44 W6        30.10S
ELKO           MOSUNNY   63  46  54 SW8       30.04F
POCATELLO, ID  PTSUNNY   59  51  75 W12       30.03S
BURLEY         CLOUDY    63  47  55 NW6       30.00S
EVANSTON, WY   CLOUDY    52  44  74 W6        30.11F
ROCK SPRINGS   MOSUNNY   57  41  55 W9        30.09F
KEMMERER       PTSUNNY   54  41  62 S10       30.12S

$$



USA.gov is the U.S. government's official web portal to all federal, state and local government web resources and services.